Location: Newark
(54.3386°S, 169.8415°W)
Time: 01:01:21
(UTC+00:00)

Transit 2A Rocket - Pass Details

Date: 29 October 2019
Orbit: 594 x 909 km, 66.7° (Epoch: 21 November)

Event Time Altitude Azimuth Distance (km) Brightness Sun altitude
Rises 08:14:48 0° 229° (SW) 3,509 10.4 -13.5°
Reaches altitude 10° 08:17:30 10° 220° (SW) 2,595 9.2 -13.7°
Maximum altitude 08:23:08 37° 153° (SSE) 1,405 6.6 -14.3°
Drops below altitude 10° 08:28:46 10° 86° (E) 2,609 7.4 -14.8°
Enters shadow 08:29:04 - 85° (E) 2,705 7.4 -14.8°
Sets 08:31:29 0° 78° (ENE) 3,530 - -15.0°
